Starlink 3789

operational
NORAD ID: 52283 Int'l Des: 2022-041 Owner: SPXS Country: US Constellation: starlink
LEOCIRCULAR

Starlink 3789について

説明を読み込み中...

リアルタイム位置

3D地球を読み込み中...

次回通過

高度履歴

Altitude vs Time

uPlot chart will show altitude changes over time

軌道要素

1 52283U 22041Y 25306.35067336 -.00000140 00000-0 93073-5 0 9991
2 52283 53.2175 320.7676 0001351 93.6460 266.4687 15.08836235195144
Epoch: Nov 2, 2025 • Age: 24 hours

現在のステータス

高度 549.4 km
速度 7.59 km/s
衛星直下点 -29.71°S, 126.98°E
打ち上げ日 Apr 21, 2022
運用期間 3.5 years
タイプ internet

技術仕様

分類 Payload
質量 297.00 kg
乾燥質量 275.00 kg
総質量 297.00 kg
長さ 0.20 m
直径 2.80 m
スパン 9.00 m
形状 Box + pan
製造者 SPXS
バスタイプ Starlink
フェーズステータス In Orbit
所有者/国 SPXS/US

大規模コンステレーション

Loading constellations...